K1MIZ Weather Reports


time (UTC)temp
F
wind
direction
speed
knots
gust
knots
rain 1hr
in
rain 24hr
in
rain mn
in
humidity
%
barometer
mb
20260507091538 48 273 1.7 4.3 0.00 0.27 0.01 86 1008.4
20260507091018 48 286 1.7 5.2 0.01 0.27 0.01 86 1008.4
20260507090520 48 260 1.7 7.0 0.01 0.27 0.01 86 1008.5
20260507090035 48 273 1.7 7.0 0.01 0.27 0.01 85 1008.6
20260507085517 48 291 1.7 6.1 0.01 0.27 0.01 85 1008.5
20260507085022 48 281 2.6 6.1 0.01 0.27 0.01 85 1008.7
20260507084539 48 290 0.9 6.1 0.01 0.27 0.01 85 1008.4
20260507084021 48 294 1.7 6.1 0.01 0.27 0.01 85 1008.2
20260507083517 48 259 2.6 6.1 0.01 0.27 0.01 85 1008.2
20260507083040 48 290 1.7 6.1 0.01 0.27 0.01 85 1008.1
20260507082518 48 274 1.7 3.5 0.01 0.27 0.01 85 1008.0
20260507082017 48 269 0.9 3.5 0.01 0.27 0.01 85 1008.0
20260507081541 48 288 0.9 7.0 0.01 0.27 0.01 85 1008.0
20260507081017 48 305 0.9 7.0 0.00 0.26 0.00 84 1007.9
20260507080516 48 296 0.9 3.5 0.00 0.26 0.00 84 1007.8
20260507080046 49 294 0.9 4.3 0.00 0.26 0.00 83 1007.7
20260507075517 49 318 1.7 5.2 0.00 0.26 0.00 83 1008.0
20260507075020 49 302 2.6 5.2 0.00 0.26 0.00 82 1008.1
20260507074535 49 271 2.6 9.6 0.00 0.26 0.00 81 1008.4
20260507074020 49 300 3.5 9.6 0.00 0.26 0.00 81 1008.2
20260507073519 49 294 3.5 8.7 0.00 0.26 0.00 81 1008.1
20260507073046 49 284 1.7 7.8 0.00 0.26 0.00 82 1008.2
20260507072520 49 268 1.7 7.0 0.00 0.26 0.00 83 1007.8
20260507072021 49 259 2.6 7.8 0.00 0.26 0.00 84 1007.5
20260507071540 50 277 3.5 7.8 0.00 0.26 0.00 85 1007.6
20260507071020 50 286 3.5 7.8 0.00 0.26 0.00 85 1007.6
20260507070520 50 334 3.5 7.0 0.00 0.26 0.00 86 1007.5
20260507070048 50 296 1.7 7.0 0.00 0.26 0.00 87 1007.6
20260507065520 50 275 1.7 5.2 0.00 0.26 0.00 87 1007.9
20260507065017 50 284 0.9 4.3 0.00 0.26 0.00 87 1007.7
20260507064544 50 0 1.7 4.3 0.00 0.26 0.00 86 1007.4
20260507064021 50 301 1.7 6.1 0.00 0.26 0.00 86 1007.3
20260507063522 50 297 1.7 6.1 0.00 0.26 0.00 86 1007.6
20260507063042 50 279 1.7 5.2 0.00 0.26 0.00 86 1007.5
20260507062520 50 283 1.7 4.3 0.00 0.26 0.00 86 1007.2
20260507062020 50 317 0.9 5.2 0.00 0.26 0.00 86 1007.1
20260507061538 50 307 1.7 7.8 0.00 0.26 0.00 86 1007.2
20260507061024 50 261 2.6 7.8 0.00 0.26 0.00 86 1007.5
20260507060519 50 269 2.6 7.8 0.00 0.26 0.00 85 1007.2
20260507060040 50 302 1.7 7.0 0.00 0.26 0.00 85 1007.3
20260507055519 50 323 1.7 6.1 0.00 0.26 0.00 85 1007.7
20260507055019 50 272 2.6 7.8 0.00 0.26 0.00 84 1007.9
20260507054540 50 286 1.7 7.8 0.00 0.26 0.00 84 1007.9
20260507054019 50 325 2.6 8.7 0.00 0.26 0.00 83 1007.7
20260507053520 51 275 4.3 8.7 0.00 0.26 0.00 83 1007.8
20260507053036 50 308 4.3 7.8 0.00 0.26 0.00 83 1008.0
20260507052518 51 319 3.5 8.7 0.00 0.26 0.00 83 1007.9
20260507052020 51 315 3.5 8.7 0.00 0.26 0.00 83 1007.9
20260507051536 51 314 3.5 7.8 0.00 0.26 0.00 83 1007.9
20260507051019 51 293 1.7 7.0 0.00 0.26 0.00 84 1007.8
20260507050518 51 275 3.5 7.8 0.00 0.26 0.00 84 1007.8
20260507050037 51 257 2.6 7.8 0.00 0.26 0.00 84 1007.6
20260507045519 51 262 3.5 7.8 0.00 0.26 0.00 84 1007.6
20260507045019 51 313 3.5 8.7 0.00 0.26 0.00 85 1007.5
20260507044556 52 273 5.2 11.3 0.00 0.26 0.00 85 1007.4
20260507044021 52 279 5.2 11.3 0.00 0.26 0.00 86 1007.6
20260507043520 52 281 4.3 9.6 0.00 0.26 0.00 87 1007.9
20260507043042 52 322 1.7 6.1 0.01 0.26 0.00 87 1007.8
20260507042520 52 255 1.7 7.8 0.01 0.26 0.00 87 1007.8
20260507042024 52 297 1.7 8.7 0.01 0.26 0.00 87 1007.8
20260507041545 52 309 2.6 8.7 0.01 0.26 0.00 86 1007.9
20260507041021 52 258 2.6 7.8 0.01 0.26 0.00 86 1008.0
20260507040518 52 261 3.5 7.8 0.01 0.26 0.00 86 1008.0
20260507040042 52 284 3.5 9.6 0.01 0.26 0.00 87 1007.8
20260507035520 53 273 2.6 9.6 0.01 0.26 0.26 87 1007.5
20260507035019 53 319 2.6 7.8 0.01 0.26 0.26 89 1007.4
20260507034541 53 295 3.5 10.4 0.01 0.26 0.26 89 1007.4
20260507034020 54 293 4.3 10.4 0.01 0.26 0.26 89 1007.3
20260507033519 54 287 4.3 10.4 0.01 0.26 0.26 89 1007.2
20260507033047 55 300 3.5 10.4 0.00 0.25 0.25 90 1007.2
20260507032520 55 321 4.3 7.8 0.00 0.25 0.25 90 1007.2
20260507032024 56 303 2.6 9.6 0.00 0.25 0.25 90 1007.1
20260507031554 56 284 3.5 9.6 0.00 0.25 0.25 89 1006.9
20260507031021 57 310 3.5 11.3 0.00 0.25 0.25 89 1006.8
20260507030519 57 312 3.5 11.3 0.00 0.25 0.25 89 1006.8
20260507030100 58 313 3.5 9.6 0.00 0.25 0.25 89 1006.8
20260507025519 58 273 5.2 10.4 0.00 0.25 0.25 89 1006.9
20260507025022 58 319 5.2 10.4 0.00 0.25 0.25 90 1006.8
20260507024600 58 323 4.3 10.4 0.00 0.25 0.25 91 1006.6
20260507024018 58 296 3.5 8.7 0.00 0.25 0.25 92 1006.7
20260507023520 59 271 2.6 7.8 0.00 0.25 0.25 94 1006.7
20260507023035 59 275 2.6 7.8 0.00 0.25 0.25 94 1006.5
20260507022520 59 290 1.7 7.0 0.00 0.25 0.25 94 1006.4
20260507022019 59 178 0.0 5.2 0.00 0.25 0.25 94 1006.1
20260507021537 59 0 1.7 5.2 0.00 0.25 0.25 94 1006.0
20260507021018 59 0 0.9 4.3 0.00 0.25 0.25 94 1006.0
20260507020520 59 202 0.9 3.5 0.00 0.25 0.25 94 1006.0
20260507020042 59 167 0.9 3.5 0.00 0.25 0.25 94 1006.2
20260507015518 59 138 0.9 6.1 0.00 0.25 0.25 94 1006.1
20260507015018 59 0 0.9 6.1 0.00 0.25 0.25 94 1006.0
20260507014543 59 253 0.9 3.5 0.00 0.25 0.25 94 1006.0
20260507014019 59 118 0.9 7.8 0.00 0.25 0.25 94 1006.0
20260507013519 59 207 0.9 7.8 0.00 0.25 0.25 94 1006.0
20260507013042 59 324 1.7 7.8 0.00 0.25 0.25 94 1005.9
20260507012521 59 140 0.9 4.3 0.00 0.25 0.25 94 1006.0
20260507012019 59 0 0.9 5.2 0.00 0.25 0.25 94 1006.0
20260507011546 59 163 1.7 5.2 0.00 0.25 0.25 93 1006.0
20260507011019 59 224 0.9 6.1 0.00 0.25 0.25 93 1006.0
20260507010519 59 178 0.9 6.1 0.00 0.25 0.25 93 1006.0
20260507010042 59 86 0.9 6.1 0.00 0.25 0.25 94 1006.0
20260507005519 59 185 0.0 5.2 0.00 0.25 0.25 94 1006.1
20260507005023 59 243 1.7 5.2 0.00 0.25 0.25 94 1006.0
20260507004534 59 165 0.9 5.2 0.00 0.25 0.25 94 1006.1
20260507004019 59 277 0.9 5.2 0.00 0.25 0.25 94 1005.9
20260507003519 59 127 0.9 4.3 0.00 0.25 0.25 93 1005.8
20260507003035 59 207 0.0 7.0 0.00 0.25 0.25 93 1005.7
20260507002518 59 188 0.9 7.8 0.00 0.25 0.25 93 1005.7
20260507002019 59 119 2.6 7.8 0.00 0.25 0.25 94 1005.8
20260507001536 59 188 1.7 7.8 0.00 0.25 0.25 93 1005.8
20260507001018 59 180 1.7 5.2 0.00 0.25 0.25 93 1005.8
20260507000519 59 153 0.9 5.2 0.00 0.25 0.25 93 1005.7
20260507000036 59 98 1.7 5.2 0.01 0.25 0.25 93 1005.8
20260506235519 59 167 1.7 8.7 0.01 0.25 0.25 93 1005.7
20260506235018 59 159 1.7 8.7 0.01 0.25 0.25 93 1005.7
20260506234545 59 184 2.6 8.7 0.01 0.25 0.25 93 1005.7
20260506234020 59 159 1.7 6.1 0.01 0.25 0.25 93 1005.6
20260506233517 59 182 1.7 6.1 0.01 0.25 0.25 93 1005.6
20260506233044 59 0 1.7 6.1 0.01 0.25 0.25 93 1005.7
20260506232516 59 225 0.9 6.1 0.01 0.25 0.25 93 1005.8
20260506232016 59 202 0.9 6.1 0.01 0.25 0.25 93 1005.8
20260506231535 59 169 2.6 6.1 0.01 0.25 0.25 93 1005.7
20260506231016 59 96 1.7 6.1 0.01 0.25 0.25 93 1005.7
20260506230515 59 187 1.7 6.1 0.01 0.25 0.25 93 1005.8
20260506230040 59 96 1.7 6.1 0.00 0.24 0.24 93 1005.8
20260506225521 59 202 1.7 7.0 0.00 0.24 0.24 93 1005.9
20260506225023 59 104 0.9 7.0 0.00 0.24 0.24 93 1006.0
20260506224541 59 181 0.9 7.0 0.00 0.24 0.24 93 1005.9
20260506224021 59 134 0.9 7.0 0.00 0.24 0.24 93 1005.9
20260506223519 59 150 1.7 7.0 0.00 0.24 0.24 93 1005.9
20260506223035 59 197 1.7 7.8 0.01 0.24 0.24 93 1006.0
20260506222519 59 232 1.7 7.8 0.01 0.24 0.24 93 1006.0
20260506222020 59 223 1.7 7.0 0.02 0.24 0.24 93 1006.0
20260506221545 59 167 1.7 6.1 0.02 0.24 0.24 93 1006.0
20260506221020 59 111 0.9 6.1 0.03 0.24 0.24 93 1006.1
20260506220520 59 202 1.7 6.1 0.03 0.24 0.24 93 1006.1
20260506220043 59 236 1.7 6.1 0.04 0.24 0.24 93 1006.2
20260506215521 60 200 1.7 6.1 0.05 0.24 0.24 93 1006.1
20260506215019 60 184 0.9 7.8 0.06 0.24 0.24 93 1006.2
20260506214545 60 110 0.9 7.8 0.07 0.24 0.24 93 1006.1
20260506214022 60 144 0.9 7.0 0.07 0.24 0.24 93 1006.2
20260506213522 60 0 0.9 7.0 0.07 0.24 0.24 93 1006.1
20260506213040 60 167 0.9 6.1 0.06 0.23 0.23 92 1006.3
20260506212519 60 0 0.9 5.2 0.07 0.23 0.23 92 1006.2
20260506212023 60 240 1.7 7.0 0.06 0.22 0.22 92 1006.4
20260506211538 60 176 1.7 7.0 0.06 0.22 0.22 92 1006.4
20260506211021 60 132 1.7 7.0 0.05 0.21 0.21 92 1006.5
20260506210521 60 84 1.7 7.0 0.06 0.21 0.21 92 1006.5
20260506210036 60 225 1.7 7.8 0.06 0.20 0.20 92 1006.5
20260506205521 61 164 1.7 7.8 0.05 0.19 0.19 92 1006.5
20260506205021 61 140 1.7 7.0 0.04 0.18 0.18 92 1006.6
20260506204536 61 96 0.9 6.1 0.03 0.17 0.17 92 1006.7
20260506204021 61 94 1.7 7.0 0.03 0.17 0.17 91 1006.6
20260506203520 61 187 2.6 7.0 0.03 0.17 0.17 91 1006.7
20260506203042 61 119 0.9 6.1 0.03 0.17 0.17 91 1006.7
20260506202521 61 137 1.7 6.1 0.02 0.16 0.16 91 1006.6
20260506202021 61 0 0.9 5.2 0.02 0.16 0.16 91 1006.6
20260506201541 61 181 0.9 5.2 0.02 0.16 0.16 91 1006.7
20260506201021 61 192 0.9 7.8 0.02 0.16 0.16 91 1006.7
20260506200520 62 104 1.7 8.7 0.02 0.15 0.15 91 1006.8
20260506200041 62 126 2.6 8.7 0.01 0.14 0.14 90 1006.9
20260506195525 62 221 1.7 8.7 0.01 0.14 0.14 91 1006.9
20260506195021 62 222 0.9 5.2 0.01 0.14 0.14 92 1006.8
20260506194536 62 186 0.0 2.6 0.02 0.14 0.14 92 1006.9
20260506194020 62 0 0.0 2.6 0.03 0.14 0.14 91 1006.8
20260506193520 62 213 0.0 2.6 0.03 0.14 0.14 91 1006.7
20260506193036 62 0 0.9 2.6 0.03 0.14 0.14 91 1006.8
20260506192521 62 108 0.0 3.5 0.04 0.14 0.14 91 1006.7
20260506192024 62 199 0.0 3.5 0.05 0.14 0.14 91 1006.8
20260506191535 62 213 0.9 3.5 0.06 0.14 0.14 91 1006.5
20260506191020 62 0 0.9 6.1 0.08 0.14 0.14 91 1006.6
20260506190520 62 172 1.7 6.1 0.08 0.13 0.13 90 1007.0
20260506190042 62 138 0.0 2.6 0.08 0.13 0.13 91 1007.0
20260506185520 62 105 0.0 2.6 0.09 0.13 0.13 90 1007.0
20260506185020 62 184 0.0 1.7 0.08 0.12 0.12 90 1007.0
20260506184547 62 0 0.0 0.9 0.08 0.12 0.12 90 1007.1
20260506184022 62 0 0.0 1.7 0.08 0.11 0.11 90 1007.4
20260506183520 62 0 0.0 2.6 0.09 0.11 0.11 89 1007.5
20260506183035 62 275 0.0 2.6 0.10 0.10 0.10 88 1007.4
20260506182520 63 271 0.9 2.6 0.10 0.10 0.10 88 1007.5
20260506182020 63 0 0.0 3.5 0.09 0.09 0.09 88 1007.6
20260506181534 63 245 0.9 3.5 0.07 0.07 0.07 87 1007.8
20260506181020 63 292 0.9 4.3 0.06 0.06 0.06 86 1007.6
20260506180521 63 271 1.7 4.3 0.05 0.05 0.05 85 1007.6
20260506180035 64 298 0.9 7.8 0.05 0.05 0.05 85 1007.7
20260506175521 64 254 0.9 7.8 0.04 0.04 0.04 84 1007.8
20260506175021 65 269 2.6 7.8 0.04 0.04 0.04 82 1007.8
20260506174535 65 313 2.6 9.6 0.04 0.04 0.04 79 1007.8
20260506174020 67 292 5.2 12.2 0.03 0.03 0.03 75 1007.9
20260506173520 69 284 1.7 12.2 0.01 0.01 0.01 72 1007.7
20260506173113 70 247 4.3 12.2 0.00 0.00 0.00 67 1007.5
20260506172519 71 257 2.6 10.4 0.00 0.00 0.00 63 1007.2
20260506172020 71 248 1.7 12.2 0.00 0.00 0.00 62 1007.1
20260506171539 71 225 3.5 12.2 0.00 0.00 0.00 61 1007.1
20260506171022 72 263 2.6 10.4 0.00 0.00 0.00 62 1007.4
20260506170520 72 190 2.6 10.4 0.00 0.00 0.00 62 1007.3
20260506170040 72 245 2.6 8.7 0.00 0.00 0.00 62 1007.4
20260506165520 72 177 2.6 9.6 0.00 0.00 0.00 62 1007.4
20260506165021 72 202 3.5 11.3 0.00 0.00 0.00 62 1007.5
20260506164536 72 38 1.7 11.3 0.00 0.00 0.00 63 1007.6
20260506164020 71 207 2.6 11.3 0.00 0.00 0.00 63 1007.7
20260506163523 71 135 3.5 9.6 0.00 0.00 0.00 65 1007.7
20260506163037 71 204 1.7 9.6 0.00 0.00 0.00 66 1007.9
20260506162519 70 335 1.7 9.6 0.00 0.00 0.00 65 1008.0
20260506162020 70 243 2.6 7.8 0.00 0.00 0.00 65 1008.0
20260506161534 70 76 3.5 8.7 0.00 0.00 0.00 65 1008.0
20260506161017 70 0 3.5 9.6 0.00 0.00 0.00 66 1008.1
20260506160517 70 174 3.5 9.6 0.00 0.00 0.00 66 1008.2
20260506160040 70 237 3.5 9.6 0.00 0.00 0.00 66 1008.5
20260506155517 70 180 2.6 10.4 0.00 0.00 0.00 67 1008.6
20260506155017 69 217 1.7 10.4 0.00 0.00 0.00 67 1008.9
20260506154545 69 215 2.6 8.7 0.00 0.00 0.00 67 1008.9
20260506154019 69 208 3.5 11.3 0.00 0.00 0.00 66 1009.0
20260506153517 69 88 4.3 11.3 0.00 0.00 0.00 67 1008.9
20260506153035 69 76 1.7 10.4 0.00 0.00 0.00 67 1009.2
20260506152517 69 285 0.9 10.4 0.00 0.00 0.00 68 1009.2
20260506152018 69 223 1.7 9.6 0.00 0.00 0.00 68 1009.3
20260506151536 69 0 2.6 11.3 0.00 0.00 0.00 68 1009.4
20260506151020 69 202 5.2 11.3 0.00 0.00 0.00 67 1009.6
20260506150516 69 235 3.5 10.4 0.00 0.00 0.00 68 1009.5
20260506150035 69 223 4.3 10.4 0.00 0.00 0.00 68 1009.3
20260506145518 69 16 3.5 10.4 0.00 0.00 0.00 68 1009.2
20260506145016 69 220 1.7 10.4 0.00 0.00 0.00 70 1009.5
20260506144538 69 150 3.5 10.4 0.00 0.00 0.00 69 1009.4
20260506144017 68 163 3.5 10.4 0.00 0.00 0.00 69 1009.3
20260506143519 68 221 0.9 7.8 0.00 0.00 0.00 71 1009.3
20260506143042 68 221 1.7 10.4 0.00 0.00 0.00 71 1009.2
20260506142518 67 182 1.7 10.4 0.00 0.00 0.00 71 1009.2
20260506142016 67 132 5.2 10.4 0.00 0.00 0.00 71 1009.2
20260506141534 67 195 2.6 9.6 0.00 0.00 0.00 71 1009.3
20260506141020 67 208 2.6 9.6 0.00 0.00 0.00 71 1009.3
20260506140517 67 169 2.6 7.0 0.00 0.00 0.00 72 1008.9
20260506140035 67 207 2.6 7.8 0.00 0.00 0.00 72 1009.0
20260506135515 67 159 2.6 7.8 0.00 0.00 0.00 72 1009.0
20260506135016 67 173 2.6 7.8 0.00 0.00 0.00 74 1009.2
20260506134535 66 170 0.9 7.8 0.00 0.00 0.00 74 1009.2
20260506134017 66 207 2.6 7.8 0.00 0.00 0.00 74 1009.3
20260506133520 65 122 0.9 7.8 0.00 0.00 0.00 75 1009.4
20260506133031 65 141 1.7 10.4 0.00 0.00 0.00 74 1009.5
20260506132522 65 210 4.3 10.4 0.00 0.00 0.00 74 1009.6
20260506132016 65 182 3.5 8.7 0.00 0.00 0.00 74 1009.6
20260506131548 65 204 2.6 7.8 0.00 0.00 0.00 75 1009.7
20260506131020 65 171 1.7 5.2 0.00 0.00 0.00 75 1009.7
20260506130519 65 142 1.7 7.8 0.00 0.00 0.00 75 1009.6
20260506130052 65 157 1.7 9.6 0.00 0.00 0.00 75 1009.6
20260506125521 65 157 3.5 12.2 0.00 0.00 0.00 74 1009.6
20260506125022 65 182 2.6 12.2 0.00 0.00 0.00 74 1009.7
20260506124537 65 235 2.6 10.4 0.00 0.00 0.00 74 1009.7
20260506124020 65 215 0.9 7.8 0.00 0.00 0.00 75 1009.7
20260506123520 64 194 1.7 7.8 0.00 0.00 0.00 76 1009.5
20260506123034 64 238 2.6 7.8 0.00 0.00 0.00 76 1009.6
20260506122520 64 246 2.6 9.6 0.00 0.00 0.00 76 1009.5
20260506122017 64 157 2.6 9.6 0.00 0.00 0.00 76 1009.6
20260506121535 64 134 3.5 7.8 0.00 0.00 0.00 76 1009.7
20260506121019 64 157 1.7 7.0 0.00 0.00 0.00 76 1009.9
20260506120522 63 200 1.7 7.0 0.00 0.00 0.00 76 1009.8
20260506120040 63 223 1.7 8.7 0.00 0.00 0.00 77 1009.9
20260506115519 62 142 2.6 8.7 0.00 0.00 0.00 78 1009.9
20260506115020 62 290 1.7 5.2 0.00 0.00 0.00 78 1010.1
20260506114540 62 151 1.7 5.2 0.00 0.00 0.00 78 1010.2
20260506114020 62 214 0.9 8.7 0.00 0.00 0.00 78 1010.1
20260506113520 62 201 0.9 8.7 0.00 0.00 0.00 78 1010.1
20260506113045 62 246 1.7 7.0 0.00 0.00 0.00 78 1010.1
20260506112519 61 144 1.7 7.8 0.00 0.00 0.00 78 1010.2
20260506112020 61 178 1.7 8.7 0.00 0.00 0.00 78 1010.3
20260506111534 61 146 1.7 8.7 0.00 0.00 0.00 78 1010.2
20260506111017 61 211 0.9 7.0 0.00 0.00 0.00 78 1010.2
20260506110517 61 168 2.6 8.7 0.00 0.00 0.00 78 1010.2
20260506110038 61 224 2.6 8.7 0.00 0.00 0.00 79 1010.1
20260506105516 61 87 1.7 6.1 0.00 0.00 0.00 79 1010.1
20260506105021 60 28 1.7 7.0 0.00 0.00 0.00 79 1010.1
20260506104548 60 225 1.7 7.0 0.00 0.00 0.00 79 1010.3
20260506104020 60 96 1.7 7.0 0.00 0.00 0.00 79 1010.4
20260506103520 60 98 1.7 7.0 0.00 0.00 0.00 79 1010.2
20260506103047 60 221 1.7 7.0 0.00 0.00 0.00 79 1010.1
20260506102520 60 126 0.9 4.3 0.00 0.00 0.00 79 1010.1
20260506102020 60 107 1.7 5.2 0.00 0.00 0.00 79 1010.0
20260506101550 60 0 0.9 5.2 0.00 0.00 0.00 78 1009.9
20260506101019 60 302 1.7 5.2 0.00 0.00 0.00 79 1010.1
20260506100519 60 242 1.7 4.3 0.00 0.00 0.00 79 1010.0
20260506100057 60 0 0.9 3.5 0.00 0.00 0.00 78 1010.0
20260506095520 60 0 0.0 6.1 0.00 0.00 0.00 78 1010.1
20260506095024 60 217 0.9 6.1 0.00 0.00 0.00 78 1010.1
20260506094534 60 180 1.7 6.1 0.00 0.00 0.00 78 1010.0
20260506094022 60 217 1.7 6.1 0.00 0.00 0.00 78 1010.0
20260506093517 60 146 1.7 6.1 0.00 0.00 0.00 78 1010.0
20260506093040 60 312 1.7 6.1 0.00 0.00 0.00 77 1009.8
20260506092517 61 180 0.9 7.8 0.00 0.00 0.00 77 1010.0
20260506092019 60 212 1.7 7.8 0.00 0.00 0.00 77 1010.1